SL-14 R/B (21423 NORAD) Tracking and Keplerian Element Data

This shows tracking and keplerian element data for the satellite.

Feedback or suggestion? Click here.




ElementValue
Catalog21423
NameSL-14 R/B
Epoch Orbit84126
Epoch Day353.94016889
Epoch Year2025
RAAN294.9711
Inclination82.4933
Eccentricity0.0018044
Argument of Perigee139.0405
Mean Anonmoly221.2168
Mean Motion14.8174485
Decay Rate3.09E-06
L11 21423U 91042B 25353.94016889 .00000309 00000+0 36158-4 0 9999
L22 21423 82.4933 294.9711 0018044 139.0405 221.2168 14.81744850841260



Live tracking and technical data element details for SL-14 R/B (NORAD 21423). SL-14 R/B can be tracked NOW for your location showing map with azimuth and elevation plus other details from your city location.







IsCatalogInMostPopularTable: catalog: 21423, numindb: 392
Update: records affected: 1



GetName: 21423 SL-14 R/B

Hit Count: updated at: Thu, 16 Apr 2026 05:19:38 GMT